Preview of NWS' New Version of Forecast
This preview is not operational and should not be used for support decisions.

Regional Weather Roundup (RWR)

Issued by National Weather Service (NWS)

                            
000
ASUS45 KBOU 260910
RWRCO 

WEATHER ROUNDUP FOR COLORADO
NATIONAL WEATHER SERVICE DENVER/BOULDER CO
300 AM MDT SUN MAY 26 2019

NOTE: "FAIR" INDICATES FEW OR NO CLOUDS BELOW 12000 FEET WITH NO
SIGNIFICANT WEATHER AND/OR OBSTRUCTIONS TO VISIBILITY.

COZ001>005-013-030-031-261000-
...NORTHWEST COLORADO...
  
CITY           SKY/WX    TMP DP  RH WIND       PRES   REMARKS
CRAIG          FAIR      35  29  78 W3        29.98F                  
HAYDEN         FAIR      43  27  53 E16       30.01F                  
MEEKER         FAIR      38  26  62 NE8       29.99S                  
RANGELY        FAIR      38  32  79 E3        29.92F                  
RABBIT EARS PA NOT AVBL                                               
STEAMBOAT SPGS FAIR      38  26  63 CALM      30.04R                  
WALDEN         FAIR      34  27  75 SE3       30.10S                  
$$

COZ006>008-011-261000-
...WEST CENTRAL VALLEYS...
  
CITY           SKY/WX    TMP DP  RH WIND       PRES   REMARKS
GRAND JUNCTION FAIR      54  30  40 E13       29.89S                  
MONTROSE       FAIR      49  26  41 SE13      29.99S                  
EAGLE          FAIR      39  29  67 CALM      30.07R                  
RIFLE          FAIR      42  34  73 W3        29.96S                  
DELTA          NOT AVBL                                               
NUCLA          FAIR      50  27  40 E14       30.01R                  
$$

COZ017>023-064>068-261000-
...SOUTHWEST COLORADO...
  
CITY           SKY/WX    TMP DP  RH WIND       PRES   REMARKS
DURANGO        FAIR      36  29  75 E5        30.06S                  
CORTEZ         FAIR      39  31  72 CALM      29.98F                  
PAGOSA SPRINGS FAIR      38  26  60 CALM      30.13S                  
TELLURIDE      FAIR      48  10  21 E3        30.16S                  
WOLF CREEK PAS FAIR      34  12  40 S26G35    30.32F WCI  21          
$$

COZ009-010-012-014-032>034-037-058>063-261000-
...CENTRAL COLORADO...
  
CITY           SKY/WX    TMP DP  RH WIND       PRES   REMARKS
ASPEN          FAIR      36  25  64 SW7       30.07S                  
BUENA VISTA    FAIR      36  27  72 NW5       30.13R                  
COPPER MTN     FAIR      37  14  38 S14       30.29S                  
BERTHOUD PASS  FAIR      32  21  64 SW22G28   30.29F WCI  19          
COTTONWOOD PAS FAIR      45  30  57 SE3       30.21S                  
GUNNISON       FAIR      34  26  72 VRB3      30.13R                  
GRANBY         FAIR      32  27  81 CALM      30.12S                  
KREMMLING      FAIR      34  32  93 CALM      30.10R                  
LEADVILLE      FAIR      31  17  56 NE3       30.19R                  
MONARCH PASS   FAIR      36  14  41 MISG      30.41S                  
SALIDA         FAIR      41  29  62 W5        30.19R                  
SUNLIGHT       FAIR      34  16  47 SE3       30.24S                  
WILKERSON PASS FAIR      37  30  75 S6        30.29F                  
$$

COZ069>075-261000-
...SAN LUIS VALLEY/SANGRE DE CRISTO MOUNTAINS...
  
CITY           SKY/WX    TMP DP  RH WIND       PRES   REMARKS
ALAMOSA        FAIR      39  24  55 SE7       30.11R                  
DEL NORTE      FAIR      41  19  42 W15       30.13R                  
LA VETA PASS   NOT AVBL                                               
SAGUACHE       FAIR      36  19  51 CALM      30.13R                  
$$

COZ035-036-038>040-261000-
...NORTHERN COLORADO FRONT RANGE...
  
CITY           SKY/WX    TMP DP  RH WIND       PRES   REMARKS
DENVER INTL AP FAIR      51  48  89 S13       29.96S                  
AURORA         CLEAR     52  51  96 CALM      29.98S                  
FRONT RANGE AP FAIR      53  50  92 S8        29.98S                  
ERIE MUNI ARPT FAIR      46  42  86 CALM      30.01S                  
BOULDER MUN AP FAIR      52  41  66 CALM      29.97R                  
CENTENNIAL     FAIR      52  47  83 SE6       29.98S                  
BROOMFIELD     FAIR      50  36  57 CALM      29.98S                  
FORT COLLINS   CLOUDY    55  54  94 NE5       29.98R                  
LONGMONT       FAIR      52  44  76 N5        29.98R                  
$$

COZ041-046-047-076>085-087-088-261000-
...PIKES PEAK/PALMER DIVIDE AND SOUTHERN FOOTHILLS...
  
CITY           SKY/WX    TMP DP  RH WIND       PRES   REMARKS
COLO. SPRINGS  CLOUDY    54  51  90 SE3       30.05R FOG              
A. F. ACADEMY  CLOUDY    51  51  99 S5        30.03R                  
SCHRIEVER AFB  NOT AVBL                                               
CHEYENNE MTN   NOT AVBL                                               
ELLICOTT       NOT AVBL                                               
FALCON         FOG       51  50  98 S6        30.08R VSB 1/2          
FORT CARSON    CLOUDY    54  54 100 S3        30.01S                  
LIMON          CLOUDY    53  53 100 SE15      30.00F FOG              
MONUMENT HILL  CLOUDY    48  46  93 CALM      30.07R FOG              
CANON CITY     NOT AVBL                                               
WALSENBURG     NOT AVBL                                               
TRINIDAD       FAIR      47  34  60 W13       29.98F                  
$$

COZ042>045-048>051-090-091-261000-
...NORTHEAST COLORADO...
  
CITY           SKY/WX    TMP DP  RH WIND       PRES   REMARKS
GREELEY ARPT   FAIR      56  54  93 E14       29.96F                  
AKRON          FAIR      53  53 100 SE12      29.98S                  
BURLINGTON     CLOUDY    56  54  93 SE12      29.97F                  
WRAY           FOG       55  55 100 E6        29.98F VSB 1/2          
YUMA           FAIR      52  43  71 E6        29.98F                  
STERLING       MOCLDY    57  55  94 SE6       29.98S                  
HOLYOKE        CLOUDY    59  55  88 SE12      30.00S FOG              
FORT MORGAN      N/A     55  53  93 SE8       29.99S                  
$$

COZ086-089-092>099-261000-
...SOUTHEAST COLORADO...
  
CITY           SKY/WX    TMP DP  RH WIND       PRES   REMARKS
PUEBLO         CLOUDY    59  54  83 N6        29.96F                  
LA JUNTA       CLOUDY    59  56  89 E7        29.92S                  
LAMAR          CLOUDY    60  56  86 SE10      29.92F                  
SPRINGFIELD      N/A     56  56 100 S12       29.96F                  
$$